Showing default

HAWK-2B, 47508

Orbit data source: Space-Track

HAWK-2B, 47508 is a payload satellite owned by HawkEye 360 (US) in SSO that was launched on Sun, 24 Jan 2021 UTC via an FALCON 9 launch vehicle from the Air Force Eastern Test Range (AFETR). Payload-class satellites include a variety of spacecraft equipped with specific instruments for various scientific and technological missions. These include communications satellites like Starlink; space stations such as the ISS; scientific satellites like the Hubble; Earth observation satellites from companies like Planet Labs, Umbra, and HawkEye 360; GPS; miniature CubeSats for education and research; and military/defense satellites.

Loading next visibility...
Identifier
47508, 2021-006CZ
Orbit
SSO
Country
Flag of USUS
Related business
Manufacturer
UTIAS-SFL
Mission
Operational Commercial Sigint
Bus & Motor
DEFIANT, Unknown motor
Mass
31 kg wet, 30 kg dry
Launch date (UTC)
2021-01-24 (6 years ago)
Launch vehicle
FALCON 9
Launch site
Air Force Eastern Test Range (AFETR)
Object type
Payload
Rocket body
Debris
Shape & HBR
Box + 2 Pan, 1.0 m
Radar Cross Section
0.348 m², Medium (>0.1 m² and < 1m²)

Expand to show TLE details & history
Last TLE update: 10 hours ago

TLE from 10 hours ago
0 HAWK-2B
1 47508U 21006CZ  26255.09482282  .00005237  00000-0  15259-3 0  9990
2 47508  97.2115 296.6200 0005069 242.9404 117.1324 15.35802806312835
Epoch: 2026-09-12T02:16Z
TLE epoch observation values (Epoch: 2026-09-12T02:16:32.691Z)
Latitude
0.00004°
Longitude
-88.62497°
Altitude
463.236 km
Speed
7.634 km/s
True Right ascension
19h 46m 28s
True Declination
0° 00' 00"
Sunlit
Object was in full shadow at epoch
Visualization orbit readout
Latitude
Unknown
Longitude
Unknown
Altitude
Unknown
Speed
Unknown
Apparent Right ascension
Unknown
Apparent Declination
Unknown
Sunlit
N/A
Visualization observer readout
Local Sidereal Time
04:20:59
Azimuth
Unknown
Elevation
Unknown
Doppler factor
Unknown
Orbital elements
Apogee altitude
458.937 km
Perigee altitude
452.01 km
Semi-major axis
6,833.61 km
Eccentricity
0.00051
Inclination
97.2115°
RAAN
296.62°
Arg. of periapsis
242.9404°
True anomaly
117.18408°
Mean anomaly
117.1324°
Eccentric anomaly
117.15824°
Mean motion
3.84209 °/min
Orbital period
93.7 mins
BSTAR
0.00015259
Loading maneuver chart data...
Computing Atmospheric mass density...
Loading historical data...
Loading historical data...
Loading historical data...
Loading historical data...
Loading historical data...
Loading historical data...
Loading historical data...

Documentation

Showing up to 5 results
|